Location: Gad�tanya
(48.0500°N, 20.8500°E)
Time: 08:11:03
(UTC+00:00)

Cosmos 1624 Rocket - Pass Details

Date: 05 July 2020
Orbit: 758 x 783 km, 74.0° (Epoch: 05 August)

Event Time Altitude Azimuth Distance (km) Brightness Sun altitude
Rises 22:07:33 0° 333° (NNW) 3,247 8.6 -18.9°
Reaches altitude 10° 22:09:59 10° 328° (NNW) 2,312 7.5 -18.9°
Maximum altitude 22:15:01 49° 255° (WSW) 978 4.4 -19.0°
Enters shadow 22:16:55 33° 202° (SSW) 1,254 4.6 -19.1°
